Location: Newark
(44.6394°N, 22.2943°E)
Time: 04:53:19
(UTC+00:00)

XW-2D - Pass Details

Date: 12 December 2023
Orbit: 440 x 449 km, 97.5° (Epoch: 02 March)

Event Time Altitude Azimuth Distance (km) Brightness Sun altitude
Rises 15:57:14 0° 154° (SSE) 2,501 ? -11.4°
Reaches altitude 10° 15:59:18 10° 149° (SSE) 1,634 ? -11.8°
Maximum altitude 16:02:42 50° 73° (ENE) 617 ? -12.3°
Drops below altitude 10° 16:06:10 10° 358° (N) 1,659 ? -12.9°
Sets 16:08:16 0° 353° (N) 2,545 ? -13.3°
